Location: Maddington
(51.2000°N, 1.9167°W)
Time: 01:00:57
(UTC+00:00)

NOSS 3-1 (A) - Visible Passes

Search period start: 24 January 2021 00:00
Search period end: 03 February 2021 00:00
Orbit: 741 x 1472 km, 63.4° (Epoch: 22 January)

Date Brightness Start Highest point End Pass type
(mag) Time Alt. Az. Time Alt. Az. Time Alt. Az.
24 Jan 4.0 18:47:42 10° NW 18:55:01 88° NE 19:02:46 13° SE visible
24 Jan 5.5 20:39:04 10° WNW 20:45:34 31° WSW 20:50:20 18° SSW visible
25 Jan 4.0 18:02:56 10° NW 18:10:06 69° NE 18:18:32 10° SE visible
25 Jan 5.0 19:53:59 10° NW 20:01:01 43° WSW 20:09:02 10° S visible
26 Jan 4.2 17:18:10 10° NW 17:25:05 54° NE 17:33:14 10° ESE visible
26 Jan 4.6 19:09:03 10° NW 19:16:22 60° SW 19:24:47 10° SSE visible
26 Jan 6.3 21:01:44 10° WNW 21:06:18 17° WSW 21:11:10 10° SW visible
27 Jan 4.2 18:24:14 10° NW 18:31:36 80° SW 18:40:12 10° SE visible
27 Jan 5.9 20:15:58 10° WNW 20:21:56 25° WSW 20:28:30 10° SSW visible
28 Jan 4.0 17:39:28 10° NW 17:46:45 80° NE 17:55:18 10° SE visible
28 Jan 5.5 19:30:42 10° NW 19:37:27 35° WSW 19:45:02 10° S visible
29 Jan 5.0 18:45:42 10° NW 18:52:52 49° WSW 19:01:04 10° SSE visible
29 Jan 6.7 20:39:33 10° W 20:42:32 12° WSW 20:45:38 10° SW visible
30 Jan 4.5 18:00:49 10° NW 18:08:10 67° SW 18:16:41 10° SSE visible
30 Jan 6.4 19:53:02 10° WNW 19:58:16 20° WSW 20:03:54 10° SSW visible
31 Jan 4.2 17:16:02 10° NW 17:23:22 88° SW 17:31:58 10° SE visible
31 Jan 6.0 19:07:31 10° WNW 19:13:51 29° WSW 19:20:52 10° SSW visible
01 Feb 5.5 18:22:23 10° NW 18:29:19 40° WSW 18:37:11 10° S visible
02 Feb 5.0 17:37:26 10° NW 17:44:41 56° SW 17:53:02 10° SSE visible
02 Feb 6.8 19:30:25 10° WNW 19:34:31 15° WSW 19:38:53 10° SW visible
